sat.trackr.live / text

‹ back to catalog

STARLINK-37042

NORAD 68266 · 2026-055E

PAYLOAD ACTIVE UNKNOWN

§ Identity

Operator
Country
US
Launch date
2026-03-19
Launch site
AFETR
Launch vehicle
Mass (kg)
RCS (m²)

Purposes: comms

External: N2YO · Heavens-Above · Gunter

§ Orbital elements

Epoch: 2026-09-19T22:45:26.187264Z

Period
93.85 min
Inclination
53.1582°
Eccentricity
0.0001317
Mean motion
15.34400599 rev/d
Perigee alt
461.8 km
Apogee alt
463.6 km
Semi-major
6,840.8 km
B*
5.8030e-4
RAAN
132.6401°
Arg perigee
88.3902°
Mean anomaly
271.7251°
Rev number
2,973

§ Raw data

STARLINK-370421 68266U 26055E   26262.94821976  .00019281  00000+0  58030-3 0  99992 68266  53.1582 132.6401 0001317  88.3902 271.7251 15.34400599 29739

JSON: /api/v1/satellites/68266 · /tle

For live sub-satellite position, see the globe view (requires WebGL).

§ Visibility from observer

Set your observer location to see the next 7 days of passes ≥ 10°. The values pass through the URL so the page stays shareable.

No JS? Fill the form by hand. The geolocation button needs JavaScript.